Location: Grange Verzio
(44.5000°N, 6.9833°E)
Time: 06:06:45
(UTC+00:00)

Cosmos 1140 Rocket - Visible Passes

Search period start: 24 September 2023 00:00
Search period end: 04 October 2023 00:00
Orbit: 743 x 766 km, 74.1° (Epoch: 23 September)

Date Brightness Start Highest point End Pass type
(mag) Time Alt. Az. Time Alt. Az. Time Alt. Az.
26 Sep 6.4 22:00:38 11° N 22:00:38 11° N 22:00:48 10° N visible
27 Sep 6.2 04:53:07 10° N 04:56:46 19° NE 05:00:24 10° E visible
27 Sep 6.2 21:19:49 11° N 21:19:49 11° N 21:20:08 10° N visible
28 Sep 6.5 04:13:26 10° NNE 04:15:05 11° NE 04:16:43 10° ENE visible
28 Sep 6.0 20:38:55 11° NNE 20:38:55 11° NNE 20:39:12 10° NNE visible
29 Sep 5.9 19:57:51 11° NNE 19:57:51 11° NNE 19:58:02 10° NNE visible
29 Sep 6.3 21:37:45 13° NNW 21:37:45 13° NNW 21:38:43 10° N visible
30 Sep 6.0 04:31:03 10° N 04:35:09 23° NE 04:39:15 10° ESE visible
30 Sep 5.7 19:16:28 11° NE 19:16:28 11° NE 19:16:36 10° NE visible
30 Sep 5.7 20:56:22 19° NNW 20:56:22 19° NNW 20:58:12 10° N visible
01 Oct 6.4 03:50:52 10° NNE 03:53:33 14° NE 03:56:14 10° E visible
01 Oct 5.4 18:27:12 10° SE 18:34:15 12° NE 18:34:45 10° NE visible
01 Oct 4.7 20:07:18 10° SW 20:13:59 36° NNW 20:17:22 10° NNE visible
02 Oct 4.7 04:49:51 10° N 04:54:55 47° ENE 04:59:57 10° SE visible
02 Oct 5.2 17:48:56 10° ESE 17:50:12 11° E 17:51:29 10° ENE visible
02 Oct 3.3 19:25:56 10° SSW 19:31:04 89° ESE 19:36:18 10° NNE visible
02 Oct 6.2 21:10:43 10° W 21:13:37 15° NW 21:16:32 10° NNW visible
03 Oct 5.7 04:09:03 10° N 04:13:32 28° ENE 04:17:59 10° ESE visible
03 Oct 3.6 18:45:05 10° S 18:50:00 48° ESE 18:54:59 10° NNE visible
03 Oct 5.6 20:27:51 10° WSW 20:32:01 24° WNW 20:36:14 10° N visible
